[[{"header":{"parameterUnit":"m.s-1","parameterCategory":1,"la1":30.2991,"la2":30.254,"lo1":-89.0895,"lo2":-89.0444,"dy":0.0017,"dx":0.0017,"nx":28,"ny":28,"refTime":"2024-06-07T21:00:00:Z","depth":0,"parameterNumber":2,"parameterNumberName":"U-component_of_WINDS"},"data":[0,0,0,0,0,0,0,0,0,0,0,0,0,0,0,0,0,0,0,0,0,0,0,0,0,0,0,0,0,0,0,0,0,0,0,0,0,0,0,0,0,0,0,0,0,0,0,0,0,0,0,0,0,0,0,0,0,0,1.2089,1.2088,0,1.2047,1.2046,1.2046,1.197,1.1969,1.1967,1.1966,1.1925,1.1925,1.1925,0,0,0,0,0,0,0,0,0,0,0,0,0,1.2103,1.2103,1.2089,1.2088,1.2088,1.2047,1.2046,1.2046,1.197,1.1969,1.1967,1.1965,1.1925,1.1925,1.1925,0,0,0,0,0,0,0,0,0,0,0,0,0,1.2083,1.2103,1.2089,1.2045,1.2041,1.2047,1.2046,1.2046,1.1971,1.1969,1.1966,1.1964,1.1925,1.1925,1.1925,1.1972,0,0,1.1927,1.1927,0,0,0,0,0,0,0,0,1.2084,1.2082,1.2052,1.2048,1.2043,1.2011,1.2036,1.2021,1.1971,1.1997,1.1966,1.1963,1.1956,1.1953,1.195,1.197,1.1968,1.1927,1.1927,1.1927,1.1927,0,0,0,0,0,0,0,1.2086,1.2084,1.2072,1.2052,1.2046,1.2028,1.2022,1.2033,1.1989,1.1995,1.1989,1.1985,1.1953,1.195,1.1949,1.1967,1.1927,1.1927,1.1927,1.1927,1.202,1.2022,0,0,0,0,0,0,1.2093,1.2085,1.2074,1.2071,1.2059,1.2029,1.2023,1.2024,1.1989,1.1982,1.1987,1.1982,1.1951,1.1948,1.1947,1.1997,1.1927,1.1928,1.1928,1.2018,1.2021,1.2023,0,0,0,0,0,0,1.2094,1.2093,1.2075,1.2077,1.2073,1.2031,1.2033,1.2024,1.2021,1.1983,1.1975,1.1993,1.1949,1.1947,1.1965,1.1995,1.1928,1.1928,1.2015,1.2019,1.2022,1.2099,0,0,0,0,0,0,1.2095,1.2094,1.2111,1.2078,1.2073,1.2095,1.2035,1.2025,1.2022,1.2015,1.1986,1.1979,1.1947,1.1965,1.1966,1.1994,1.1928,1.2013,1.2017,1.2021,1.2094,1.2105,1.2114,0,0,0,0,0,1.2095,1.2135,1.2112,1.2111,1.2094,1.2097,1.2094,1.2056,1.2025,1.2042,1.2017,1.198,1.1992,1.1968,1.1968,1.1997,1.2011,1.2016,1.2021,1.2089,1.2103,1.2114,0,0,0,0,0,0,1.2175,1.213,1.2104,1.2135,1.212,1.2084,1.2104,1.2071,1.2065,1.2059,1.2012,1.2006,1.2031,1.2016,1.199,1.2038,1.1995,1.2,1.2048,1.206,1.207,1.2073,1.1929,0,0,0,0,0,1.2195,1.2201,1.2162,1.2193,1.2186,1.2147,1.2146,1.2118,1.2101,1.2094,1.2071,1.2056,1.2056,1.2057,1.2055,1.2091,1.2083,1.2111,1.2121,1.213,1.2135,1.2151,1.2163,1.204,1.2039,1.2039,0,0,1.2239,1.2215,1.2222,1.2208,1.2193,1.2199,1.2142,1.2152,1.2156,1.2096,1.2112,1.2094,1.2074,1.2102,1.2112,1.209,1.2167,1.2136,1.2143,1.2144,1.2157,1.2169,1.2179,1.2043,1.2042,1.2042,0,0,1.2321,1.2304,1.2327,1.2312,1.229,1.2263,1.2269,1.2237,1.2222,1.2237,1.2192,1.2196,1.2198,1.2185,1.2179,1.2254,1.2219,1.2254,1.2307,1.2324,1.2334,1.2342,1.2368,1.2377,1.226,1.226,1.226,0,1.2378,1.2386,1.2343,1.2355,1.2349,1.2294,1.2316,1.2304,1.2283,1.2281,1.2255,1.2254,1.2237,1.226,1.2278,1.2275,1.2279,1.2258,1.2336,1.2343,1.2351,1.2374,1.2384,1.2264,1.2264,1.2263,1.2263,0,1.2456,1.2462,1.2483,1.2462,1.2459,1.2477,1.2436,1.2438,1.2409,1.2384,1.2399,1.2377,1.2368,1.2371,1.2344,1.239,1.2376,1.2344,1.2299,1.2367,1.2389,1.2398,1.227,1.2269,1.2267,1.2266,0,0,1.2588,1.2542,1.255,1.2539,1.2509,1.2513,1.2527,1.2518,1.252,1.2507,1.2517,1.2518,1.2487,1.2481,1.2451,1.2466,1.2525,1.2431,1.243,1.2448,1.2572,1.2596,1.2607,1.2501,1.2503,1.2504,1.2573,0,1.2664,1.2684,1.2645,1.2675,1.2679,1.2626,1.2638,1.2621,1.2598,1.2598,1.2573,1.2574,1.2534,1.2529,1.2541,1.2515,1.2549,1.2509,1.251,1.2511,1.2516,1.2619,1.2645,1.2711,1.2581,1.2583,1.2584,0,1.2755,1.2744,1.2775,1.2741,1.2741,1.2753,1.274,1.2741,1.272,1.2702,1.2693,1.2658,1.2669,1.2626,1.2639,1.2614,1.2611,1.2598,1.26,1.2598,1.2551,1.2619,1.2731,1.2741,1.2597,1.2596,1.2595,0,1.2847,1.284,1.2857,1.2849,1.2811,1.282,1.2805,1.2781,1.2778,1.2767,1.2763,1.2754,1.2749,1.2743,1.2706,1.2678,1.2724,1.2678,1.2709,1.271,1.2721,1.2721,1.2833,1.2721,1.272,1.272,1.272,0,1.2934,1.2955,1.2897,1.2908,1.2929,1.2883,1.2905,1.2884,1.2863,1.2868,1.2822,1.2828,1.2778,1.2778,1.2749,1.2764,1.2763,1.2748,1.274,1.2752,1.2754,1.275,1.2744,1.2723,1.2722,1.2722,1.2721,0,1.3041,1.3003,1.3018,1.2979,1.297,1.2987,1.2954,1.2962,1.2935,1.2942,1.2941,1.29,1.2897,1.2859,1.2849,1.2829,1.2856,1.284,1.2863,1.2857,1.289,1.2887,1.3004,1.3016,1.2897,1.2898,1.2899,0,1.3099,1.3113,1.3076,1.3075,1.3062,1.3062,1.3057,1.3012,1.3009,1.2985,1.2996,1.2989,1.2982,1.2981,1.295,1.2941,1.2924,1.2965,1.2922,1.2933,1.2923,1.2923,1.2923,1.2974,1.2976,1.2977,1.2978,0,1.3207,1.3187,1.3181,1.3169,1.3165,1.3153,1.3139,1.3141,1.3092,1.3091,1.3087,1.3081,1.3069,1.3063,1.3049,1.3033,1.2997,1.2992,1.2998,1.301,1.3023,1.3015,1.2887,1.2989,1.2988,1.2987,1.2987,1.2986,1.329,1.3299,1.3274,1.3269,1.3253,1.324,1.3245,1.3218,1.3214,1.32,1.3174,1.3174,1.3151,1.3128,1.3115,1.3114,1.3093,1.3103,1.3105,1.3108,1.3114,1.3023,1.3111,1.3111,1.3111,1.311,1.311,0,1.3394,1.3374,1.337,1.3351,1.3347,1.3312,1.3294,1.3293,1.3293,1.3274,1.3267,1.3262,1.3256,1.3223,1.3213,1.3219,1.3202,1.3217,1.3216,1.3213,1.3134,1.3129,1.3231,1.3231,1.3231,1.3231,1.3231,1.3231,1.3447,1.3461,1.3437,1.3442,1.3422,1.3421,1.3413,1.3401,1.3385,1.3382,1.3375,1.3354,1.3329,1.3316,1.3309,1.3299,1.3297,1.3318,1.3303,1.323,1.3219,1.3208,1.3202,1.3318,1.3318,1.3382,1.3383,1.3383]},{"header":{"parameterUnit":"m.s-1","parameterCategory":1,"la1":30.2991,"la2":30.254,"lo1":-89.0895,"lo2":-89.0444,"dy":0.0017,"dx":0.0017,"nx":28,"ny":28,"refTime":"2024-06-07T21:00:00:Z","depth":0,"parameterNumber":3,"parameterNumberName":"V-component_of_WINDS"},"data":[0,0,0,0,0,0,0,0,0,0,0,0,0,0,0,0,0,0,0,0,0,0,0,0,0,0,0,0,0,0,0,0,0,0,0,0,0,0,0,0,0,0,0,0,0,0,0,0,0,0,0,0,0,0,0,0,0,0,4.3108,4.3109,0,4.3222,4.3224,4.3225,4.3213,4.3211,4.3209,4.3207,4.3319,4.3324,4.3328,0,0,0,0,0,0,0,0,0,0,0,0,0,4.2874,4.2878,4.3108,4.3109,4.3111,4.3222,4.3224,4.3225,4.3213,4.3211,4.3209,4.3207,4.3318,4.3323,4.3329,0,0,0,0,0,0,0,0,0,0,0,0,0,4.298,4.288,4.3108,4.3118,4.312,4.3222,4.3224,4.3226,4.3214,4.3211,4.3208,4.3206,4.3316,4.3323,4.3329,4.3426,0,0,4.3351,4.3354,0,0,0,0,0,0,0,0,4.2974,4.2989,4.3115,4.3118,4.312,4.3201,4.3182,4.3293,4.3214,4.3178,4.3207,4.3204,4.3282,4.3291,4.3318,4.3431,4.3436,4.3351,4.3356,4.3359,4.3361,0,0,0,0,0,0,0,4.2967,4.2984,4.3153,4.3117,4.312,4.3116,4.3128,4.3203,4.3243,4.3181,4.318,4.3194,4.3282,4.3312,4.3321,4.3438,4.3351,4.3357,4.3362,4.3364,4.3636,4.3639,0,0,0,0,0,0,4.2958,4.2978,4.3149,4.3156,4.3039,4.3122,4.3136,4.3177,4.3242,4.325,4.3197,4.3193,4.3301,4.3313,4.3325,4.3443,4.3358,4.3365,4.3369,4.3633,4.3637,4.364,0,0,0,0,0,0,4.2953,4.2973,4.3145,4.3067,4.3089,4.3129,4.3176,4.3181,4.321,4.3254,4.3261,4.3219,4.3299,4.3315,4.3402,4.3446,4.3368,4.3374,4.363,4.3634,4.3638,4.3679,0,0,0,0,0,0,4.2946,4.2972,4.301,4.3068,4.3093,4.3221,4.3179,4.3185,4.3223,4.322,4.3278,4.3284,4.3299,4.3391,4.3408,4.3455,4.338,4.3626,4.3632,4.3637,4.3674,4.3684,4.3694,0,0,0,0,0,4.2938,4.3015,4.3012,4.3033,4.3142,4.3224,4.3238,4.3254,4.3227,4.3265,4.3293,4.3283,4.3439,4.34,4.3419,4.3468,4.3623,4.363,4.3637,4.3669,4.3682,4.3693,0,0,0,0,0,0,4.2959,4.3023,4.302,4.3119,4.3166,4.3222,4.327,4.3267,4.3322,4.3316,4.3332,4.3345,4.3433,4.3459,4.3415,4.3565,4.3527,4.3538,4.3545,4.3558,4.3568,4.3559,4.3386,0,0,0,0,0,4.2976,4.3038,4.309,4.3172,4.3197,4.323,4.3266,4.3274,4.3323,4.3343,4.3377,4.3424,4.3483,4.3522,4.3579,4.3678,4.369,4.3721,4.373,4.3738,4.3748,4.3802,4.3816,4.3663,4.3663,4.3662,0,0,4.3009,4.3052,4.3091,4.3178,4.3216,4.3279,4.3246,4.3314,4.3361,4.3352,4.3437,4.3464,4.3517,4.361,4.3653,4.3634,4.3793,4.3747,4.3753,4.3758,4.381,4.3825,4.3838,4.3667,4.3666,4.3666,0,0,4.3104,4.3143,4.3216,4.3255,4.3314,4.3335,4.3353,4.3409,4.3427,4.3513,4.3508,4.3563,4.3665,4.3703,4.3736,4.3846,4.3838,4.3864,4.3915,4.3968,4.398,4.3991,4.403,4.4044,4.3873,4.3873,4.3873,0,4.3138,4.3236,4.3254,4.3324,4.3362,4.3359,4.3432,4.3469,4.3542,4.3568,4.3547,4.3676,4.3711,4.3813,4.3841,4.3867,4.3887,4.3858,4.3977,4.3988,4.3999,4.4036,4.4051,4.3876,4.3876,4.3875,4.3875,0,4.3275,4.3343,4.3394,4.3468,4.3512,4.3583,4.3611,4.3653,4.3658,4.3681,4.3768,4.381,4.3876,4.3901,4.3906,4.4005,4.3992,4.3974,4.3935,4.4016,4.4052,4.4066,4.388,4.3879,4.3878,4.3877,0,0,4.3386,4.3469,4.3488,4.3522,4.3586,4.3638,4.3708,4.3775,4.3811,4.3862,4.3921,4.4008,4.3993,4.403,4.4039,4.4085,4.417,4.4062,4.4063,4.408,4.4282,4.4295,4.4311,4.4165,4.4168,4.4171,4.4277,0,4.3487,4.3615,4.3633,4.3745,4.3807,4.3806,4.3867,4.3913,4.3937,4.3992,4.4017,4.4079,4.4053,4.4076,4.4122,4.415,4.4211,4.4143,4.422,4.4222,4.4207,4.433,4.4344,4.4443,4.4291,4.4294,4.4296,0,4.3622,4.3679,4.3798,4.3855,4.3882,4.3937,4.4,4.4053,4.4104,4.4118,4.4161,4.4164,4.4236,4.4195,4.4294,4.4247,4.428,4.4298,4.4303,4.431,4.4264,4.4341,4.4475,4.449,4.4318,4.4316,4.4314,0,4.3691,4.3797,4.3882,4.3911,4.3979,4.4018,4.4048,4.4097,4.4136,4.4191,4.4216,4.4277,4.4311,4.4358,4.4377,4.4345,4.4475,4.4436,4.4488,4.4488,4.4515,4.4513,4.4656,4.4536,4.4536,4.4536,4.4535,0,4.3803,4.3875,4.3915,4.3967,4.4048,4.4068,4.4147,4.4176,4.422,4.4276,4.4278,4.433,4.4353,4.4409,4.4424,4.4504,4.4519,4.4532,4.4535,4.4532,4.453,4.4553,4.4547,4.454,4.4539,4.4538,4.4537,0,4.3894,4.3923,4.4016,4.4074,4.409,4.4147,4.4196,4.4246,4.427,4.4341,4.4359,4.4396,4.4462,4.4486,4.4566,4.4577,4.4669,4.4667,4.4653,4.4654,4.4705,4.47,4.4867,4.4891,4.4755,4.4756,4.4758,0,4.3963,4.4019,4.4084,4.4123,4.4155,4.4218,4.4259,4.428,4.4322,4.4385,4.4428,4.4494,4.4548,4.4654,4.4687,4.4748,4.4747,4.4801,4.4756,4.4751,4.4748,4.4745,4.475,4.481,4.4811,4.4812,4.4813,0,4.4082,4.4095,4.4154,4.4219,4.4268,4.432,4.437,4.4401,4.443,4.4477,4.4546,4.4589,4.4672,4.4737,4.48,4.4829,4.4826,4.4827,4.4843,4.484,4.483,4.4837,4.4676,4.4823,4.4822,4.4822,4.4821,4.4821,4.4165,4.4215,4.4269,4.4335,4.4376,4.4423,4.4473,4.4504,4.4563,4.4633,4.4642,4.4716,4.4766,4.4851,4.4883,4.494,4.4925,4.4947,4.4953,4.4958,4.4962,4.4821,4.4951,4.4951,4.4951,4.4951,4.495,0,4.4285,4.432,4.4381,4.4452,4.4504,4.4499,4.4554,4.4598,4.4664,4.4711,4.4765,4.4845,4.4909,4.4947,4.5011,4.505,4.505,4.5066,4.5063,4.507,4.4972,4.4952,4.5065,4.5065,4.5065,4.5065,4.5064,4.5064,4.4354,4.4439,4.4457,4.4562,4.4596,4.4671,4.4703,4.4746,4.4784,4.4873,4.4928,4.4953,4.4997,4.5064,4.5122,4.5132,4.5155,4.5173,4.5181,4.5088,4.5077,4.5065,4.5047,4.5178,4.5178,4.5274,4.5275,4.5276]}]]